Location: Smithers
(54.7670°N, 127.1670°W)
Time: 12:52:21
(UTC-07:00)

Daily predictions for brighter satellites

Satellite Brightness Start Highest point End
(mag) Time Altitude Azimuth Time Altitude Azimuth Time Altitude Azimuth
Spot 4 4.4 22:38:53 10° SE 22:43:27 47° ENE 22:48:04 10° N
USA 245 4.2 22:38:34 10° S 22:43:54 66° WSW 22:48:12 10° NNW
Cosmos 1953 Rocket 3.7 22:41:10 10° S 22:45:37 90° W 22:50:08 10° NNE
SPOT 5 4.1 22:42:48 10° SSW 22:46:43 33° W 22:50:40 10° NNW
Cosmos 1190 Rocket 4.1 22:41:52 10° SSW 22:47:12 84° ESE 22:52:34 10° NNE
ARGOS 3.4 22:42:35 10° S 22:48:02 75° WSW 22:53:30 10° NNW
Cosmos 1570 Rocket 4.2 22:43:49 10° NNW 22:49:14 83° WSW 22:54:36 10° SSE
ATLAS CENTAUR R/B 4.1 22:46:55 10° WNW 22:51:21 29° NNW 22:55:39 10° NE
Cosmos 1140 Rocket 4.2 22:48:27 10° S 22:53:13 36° ESE 22:58:00 10° NE
Lacrosse 5 2.1 22:49:47 10° WNW 22:54:53 75° NNE 22:59:58 10° E
YAOGAN 6 3.9 22:54:46 10° SSW 22:58:17 38° W 23:01:50 10° NNW
Cosmos 2369 Rocket 4.1 22:56:10 10° NW 23:00:26 22° WSW 23:04:40 10° SSW
H-2A R/B 2.1 22:55:30 10° SSE 23:00:32 79° ENE 23:05:45 10° NNW
Cosmos 1766 4.3 22:56:57 10° NNW 23:00:48 45° W 23:04:38 10° SSW
ATLAS 3B R/B 2.9 22:53:39 10° SSW 23:01:17 72° SE 23:08:39 10° NE
Cosmos 676 Rocket 4.0 22:59:25 10° SSW 23:04:45 76° ESE 23:10:05 10° NNE
Meteor 1-21 4.4 23:00:03 10° S 23:05:52 87° ESE 23:11:45 10° NNE
Cosmos 1544 3.4 23:03:34 10° N 23:07:18 58° ENE 23:10:59 10° SSE
Genesis I 4.1 23:04:45 10° NW 23:08:40 47° NNE 23:12:30 10° ESE
SAR-Lupe-2 3.6 23:07:07 10° SSE 23:10:42 82° WSW 23:14:19 10° NNW
Cosmos 1758 3.7 23:08:32 10° NNW 23:12:38 65° W 23:16:43 10° S
SL-08 RB Rocket 4.4 23:08:49 10° S 23:13:14 51° W 23:17:39 10° NNW
Cosmos 1340 4.0 23:10:35 10° SE 23:13:39 25° E 23:16:47 10° NE
Cosmos 1900 4.4 23:11:11 10° SW 23:16:20 82° SE 23:21:30 10° NE
Cosmos 2369 4.3 23:11:03 10° NNW 23:16:38 53° NE 23:22:10 10° SE
COSMOS 2455 3.6 23:11:43 10° WSW 23:17:39 58° NW 23:23:37 10° NE
USA 234 4.0 23:12:00 10° SSE 23:18:06 40° SW 23:24:15 10° WNW
Cosmos 1758 Rocket 4.3 23:14:51 10° SSW 23:19:08 55° WNW 23:23:25 10° N
CARTOSAT-1 3.7 23:16:29 10° S 23:20:48 73° WSW 23:25:09 10° NNW
SL-27 R/B 2.2 23:19:42 10° SSW 23:23:03 77° ESE 23:26:26 10° NNE
Okean 3 Rocket 4.4 23:22:49 11° SSE 23:26:36 35° E 23:30:40 10° NNE
Cosmos 1470 2.8 23:22:45 10° N 23:26:40 72° ENE 23:30:11 12° SSE
Cosmos 1805 3.9 23:23:09 10° NNW 23:27:01 52° W 23:30:52 10° S
Cosmos 1980 Rocket 3.9 23:24:27 10° NNW 23:29:17 28° NE 23:34:08 10° E
Cosmos 1763 Rocket 4.5 23:25:03 10° NNW 23:30:07 41° NE 23:35:07 10° ESE
Meteor 2-5 Rocket 4.3 23:25:22 10° SSE 23:30:42 43° E 23:36:04 10° NNE
Cosmos 407 Rocket 4.1 23:25:45 10° SW 23:30:56 60° WNW 23:36:06 10° NNE
DMSP B5D2-2 4.2 23:29:09 10° NNE 23:34:25 63° ESE 23:39:38 10° S
COSMOS 2487 3.2 23:32:57 12° S 23:35:57 36° ESE 23:39:19 10° NE
IGS 5A 3.9 23:32:50 10° S 23:36:56 59° WSW 23:41:05 10° NNW
CZ-4C R/B 3.4 23:33:47 11° SSE 23:37:52 25° ESE 23:42:41 10° ENE
Cosmos 2278 3.8 23:32:18 10° NNW 23:38:00 76° NE 23:43:20 12° SE
ISS -3.1 23:37:33 10° WSW 23:40:43 48° S 23:43:53 10° ESE
Lacrosse 4 Rocket 2.4 23:38:25 10° WSW 23:42:24 50° NW 23:46:29 10° NNE
Cosmos 1842 Rocket 4.2 23:38:51 10° NNW 23:43:08 52° W 23:47:25 10° S
Cosmos 1689 Rocket 4.4 23:41:26 10° ESE 23:43:44 18° ENE 23:46:04 10° NNE
CZ-4B R/B 3.3 23:45:15 10° ESE 23:48:19 25° ENE 23:51:24 10° N
Cosmos 1697 Rocket 3.6 23:42:58 10° NNW 23:48:24 44° NE 23:53:49 10° ESE
USA 238 DEB 3.8 23:42:09 10° SSW 23:49:09 65° SE 23:56:08 10° NE
USA 238 3.8 23:42:16 10° SSW 23:49:14 65° SE 23:56:13 10° NE
Cosmos 1943 Rocket 4.0 23:45:06 10° NW 23:49:15 22° WSW 23:53:26 10° SSW
ALOS 2 3.8 23:46:57 10° SE 23:50:52 34° ENE 23:54:50 10° N
Cosmos 1818 3.7 23:45:36 10° NW 23:51:04 65° SW 23:55:44 14° SSE
Cosmos 1954 Rocket 4.5 23:47:11 10° SW 23:52:28 66° WNW 23:57:46 10° NNE
H-2A R/B 4.3 23:50:22 10° NE 23:52:46 16° E 23:54:55 11° SE
COSMOS 2406 3.2 23:48:22 10° SSW 23:54:06 80° ESE 23:59:53 10° NE
